Printer-friendly version

IAU Minor Planet Center

Minor Planet Center

MPEC 2000-W30: 2000 WF10

The following Minor Planet Electronic Circular may be linked-to from your own Web pages, but must not otherwise be redistributed electronically.


Read MPEC 2000-W29 Read MPEC 2000-W31


M.P.E.C. 2000-W30                                Issued 2000 Nov. 24, 21:05 UT

     The Minor Planet Electronic Circulars contain information on unusual
         minor planets and routine data on comets.  They are published
   on behalf of Commission 20 of the International Astronomical Union by the
          Minor Planet Center, Smithsonian Astrophysical Observatory,
                          Cambridge, MA 02138, U.S.A.

             Prepared using the Tamkin Foundation Computer Network

                              MPC@CFA.HARVARD.EDU
          URL http://cfa-www.harvard.edu/iau/mpc.html  ISSN 1523-6714

                                   2000 WF10

Observations:
     K00W10F* C2000 11 18.06983 21 00 57.09 -12 04 11.4          18.6        704
     K00W10F  C2000 11 18.08473 21 00 59.99 -12 04 08.3          19.5        704
     K00W10F  C2000 11 18.09963 21 01 02.87 -12 04 05.2          19.1        704
     K00W10F  C2000 11 18.11454 21 01 05.80 -12 04 02.9          18.7        704
     K00W10F  C2000 11 19.43542 21 05 25.29 -11 58 58.6          17.5 R      474
     K00W10F  C2000 11 19.44213 21 05 26.78 -11 58 59.0                      474
     K00W10F  C2000 11 19.68684 21 06 14.92 -11 58 09.7                      557
     K00W10F  C2000 11 19.68711 21 06 14.90 -11 58 09.9          17.0 R      046
     K00W10F  C2000 11 19.68809 21 06 15.17 -11 58 09.4                      046
     K00W10F  C2000 11 19.68907 21 06 15.32 -11 58 10.1                      046
     K00W10F  C2000 11 19.69007 21 06 15.55 -11 58 10.1                      046
     K00W10F  C2000 11 19.69047 21 06 15.67 -11 58 09.1                      557
     K00W10F  C2000 11 19.69221 21 06 16.09 -11 58 10.1                      046
     K00W10F  C2000 11 19.69229 21 06 15.92 -11 58 08.6                      557
     K00W10F  C2000 11 19.69411 21 06 16.35 -11 58 08.7          19.1 V      557
     K00W10F  C2000 11 19.69468 21 06 16.37 -11 58 08.0          17.1 R      046
     K00W10F  C2000 11 23.06396 21 17 16.23 -11 43 21.2          19.7        853
     K00W10F  C2000 11 23.06543 21 17 16.56 -11 43 20.7          20.4        853
     K00W10F  C2000 11 23.06640 21 17 16.72 -11 43 20.4          20.3        853
     K00W10F  C2000 11 23.10843 21 17 24.77 -11 43 07.9          18.5        704
     K00W10F  C2000 11 23.11957 21 17 26.97 -11 43 04.1          19.1        704
     K00W10F  C2000 11 23.13071 21 17 29.13 -11 43 02.1          19.0        704
     K00W10F  C2000 11 23.14185 21 17 31.34 -11 42 57.6          19.5        704

Observer details:
046 Klet.  Observers J. Ticha, M. Tichy.  0.57-m f/5.2 reflector + CCD.
474 Mount John Observatory, Lake Tekapo.  Observer A. C. Gilmore.  1.0-m f/7.7
    reflector + CCD.
557 Ondrejov.  Observer L. Sarounova.  0.65-m f/3.6 reflector + CCD.
704 Lincoln Laboratory ETS, New Mexico.  Observers M. Blythe, F. Shelly,
    M. Bezpalko, M. Elowitz, R. Huber, L. Manguso.  Measurers J. Stuart,
    R. Sayer, J. B. Evans, H. Viggh.  1.0-m f/2.15 reflector + CCD.
853 Biosphere 2 Observatory.  Observer G. J. Garradd.  0.6-m f/8.1 reflector
    + CCD.

Orbital elements:
2000 WF10
Epoch 2000 Nov. 12.0 TT = JDT 2451860.5                 Williams
M   1.82263              (2000.0)            P               Q
n   0.08173894     Peri.  140.59889     +0.88937556     +0.45464663
a   5.2583567      Node   192.62426     -0.45493935     +0.86973902
e   0.7142854      Incl.   12.69682     -0.04518065     +0.19196479
P  12.1            H   15.6           G   0.15
From 23 observations 2000 Nov. 18-23.

Ephemeris:
2000 WF10                a,e,i = 5.26, 0.71, 13                  q = 1.5024
Date    TT    R. A. (2000) Decl.     Delta      r     Elong.  Phase     V
2000 11 22    21 13.80   -11 48.3    1.431    1.550    77.3    38.4    18.9
2000 12 02    21 46.07   -10 50.8    1.520    1.583    75.0    37.0    19.0
2000 12 12    22 17.37   -09 32.4    1.620    1.623    72.5    35.3    19.2
2000 12 22    22 47.42   -07 57.9    1.731    1.670    69.8    33.6    19.3
2001 01 01    23 16.13   -06 12.1    1.852    1.723    66.9    31.7    19.5
2001 01 11    23 43.49   -04 19.3    1.982    1.780    63.7    29.7    19.6
2001 01 21    00 09.55   -02 23.6    2.119    1.842    60.3    27.7    19.8

Gareth V. Williams           (C) Copyright 2000 MPC           M.P.E.C. 2000-W30

Read MPEC 2000-W29 Read MPEC 2000-W31


Our Web policy. Index to the CBAT/MPC/ICQ pages.


Valid HTML 4.01!